Bismarck, ND

10:15 AM CDT on March 25, 2017 (GMT -0500)
Bismarck Municipal

Weather History for KBIS - February, 2013

Change the Weather History Date:

Sunday, February 24, 2013

  Actual Average Record
Temperature  
Mean Temperature 27 °F 21 °F  
Max Temperature 34 °F 31 °F 55 °F (1958)
Min Temperature 19 °F 11 °F -28 °F (1993)
Degree Days  
Heating Degree Days 38 44  
Month to date heating degree days 1054 1143  
Since 1 July heating degree days 6160 6261  
Cooling Degree Days 0 0  
Month to date cooling degree days 0 0  
Year to date cooling degree days 0 0  
Moisture  
Dew Point 21 °F    
Average Humidity 80    
Maximum Humidity 96    
Minimum Humidity 63    
Precipitation  
Precipitation 0.01 in 0.02 in 0.66 in (1930)
Month to date precipitation 0.27 0.41  
Year to date precipitation 0.52 0.84  
Snow  
Snow 0.10 in 0.40 in 9.20 in (1930)
Month to date snowfall 3.5 6.8  
Since 1 July snowfall 28.6 36.2  
Snow Depth 1.00 in    
Sea Level Pressure  
Sea Level Pressure 29.99 in    
Wind  
Wind Speed 8 mph (WNW)    
Max Wind Speed 21 mph    
Max Gust Speed 27 mph    
Visibility 8 miles    
Events Snow    
T = Trace of Precipitation, MM = Missing Value Source: NWS Daily Summary

Daily Weather History Graph

Daily Weather History Graph

Search for Another Location

Airport or City:

Trip Planner

Search our weather history database for the weather conditions in past years. The results will help you decide how hot, cold, wet, or windy it might be!

Date:

Astronomy

Feb. 24, 2013 Rise Set
Actual Time 7:31 AM CST 6:21 PM CST
Civil Twilight 7:00 AM CST 6:52 PM CST
Nautical Twilight 6:25 AM CST 7:27 PM CST
Astronomical Twilight 5:50 AM CST 8:02 PM CST
Moon 5:35 PM CST (2/24) 6:30 AM CST (2/24)
Length of Visible Light 11h 51m
Length of Day
10h 50m
Waxing Gibbous, 99% of the Moon is Illuminated
Feb 24
Waxing Gibbous
Feb 25
Full
Mar 4
Last Quarter
Mar 11
New
Mar 19
First Quarter

Hourly Weather History & Observations

Time (CST) Temp. Windchill Dew Point Humidity Pressure Visibility Wind Dir Wind Speed Gust Speed Precip Events Conditions
12:52 AM 24.1 °F 17.0 °F 19.9 °F 84% 29.89 in 10.0 mi SE 5.8 mph - N/A   Overcast
1:52 AM 24.1 °F 18.2 °F 19.9 °F 84% 29.91 in 10.0 mi SE 4.6 mph - N/A   Overcast
2:08 AM 24.1 °F 18.2 °F 19.0 °F 81% 29.84 in 10.0 mi SE 4.6 mph - N/A   Overcast
2:52 AM 23.0 °F 17.0 °F 19.0 °F 85% 29.92 in 10.0 mi SE 4.6 mph - N/A   Overcast
3:36 AM 24.1 °F 19.7 °F 19.9 °F 84% 29.85 in 5.0 mi SE 3.5 mph - 0.00 in Snow Light Snow
3:47 AM 24.8 °F 20.5 °F 21.2 °F 86% 29.85 in 4.0 mi SE 3.5 mph - 0.00 in Snow Light Snow
3:52 AM 24.1 °F 19.7 °F 21.0 °F 88% 29.92 in 4.0 mi SE 3.5 mph - 0.00 in Snow Light Snow
4:08 AM 24.1 °F 18.2 °F 21.0 °F 88% 29.85 in 2.0 mi SE 4.6 mph - 0.00 in Snow Light Snow
4:15 AM 24.1 °F 17.0 °F 21.0 °F 88% 29.85 in 1.8 mi ESE 5.8 mph - 0.00 in Snow Light Snow
4:23 AM 24.1 °F 17.0 °F 21.0 °F 88% 29.85 in 2.0 mi SE 5.8 mph - 0.00 in Snow Light Snow
4:35 AM 24.1 °F 18.2 °F 21.0 °F 88% 29.86 in 3.0 mi SE 4.6 mph - 0.00 in Snow Light Snow
4:52 AM 24.1 °F 17.0 °F 21.0 °F 88% 29.92 in 5.0 mi SE 5.8 mph - 0.01 in Snow Light Snow
5:21 AM 24.1 °F 18.2 °F 21.0 °F 88% 29.86 in 5.0 mi ESE 4.6 mph - 0.00 in Snow Light Snow
5:42 AM 23.0 °F - 21.0 °F 92% 29.87 in 9.0 mi Calm Calm - 0.00 in   Overcast
5:52 AM 23.0 °F 18.4 °F 21.0 °F 92% 29.94 in 9.0 mi SE 3.5 mph - 0.00 in   Overcast
6:52 AM 24.1 °F - 21.0 °F 88% 29.96 in 9.0 mi Calm Calm - N/A   Overcast
7:52 AM 23.0 °F - 21.0 °F 92% 29.99 in 7.0 mi Calm Calm - N/A   Overcast
8:52 AM 26.1 °F 20.5 °F 21.9 °F 84% 30.00 in 7.0 mi West 4.6 mph - N/A   Overcast
9:52 AM 28.9 °F 19.2 °F 23.0 °F 78% 30.03 in 10.0 mi WNW 11.5 mph - N/A   Overcast
10:45 AM 28.9 °F 16.5 °F 23.0 °F 78% 29.99 in 10.0 mi NW 18.4 mph 21.9 mph N/A   Overcast
10:52 AM 28.9 °F 18.2 °F 21.9 °F 75% 30.06 in 10.0 mi NW 13.8 mph - N/A   Overcast
11:52 AM 30.9 °F 20.2 °F 23.0 °F 72% 30.06 in 10.0 mi NNW 15.0 mph - N/A   Overcast
12:52 PM 32.0 °F 22.1 °F 21.9 °F 66% 30.06 in 10.0 mi NW 13.8 mph - N/A   Overcast
1:13 PM 33.1 °F 23.9 °F 23.0 °F 66% 29.98 in 10.0 mi NW 12.7 mph - N/A   Scattered Clouds
1:52 PM 33.1 °F 21.2 °F 23.0 °F 66% 30.05 in 10.0 mi NW 20.7 mph 25.3 mph N/A   Clear
2:52 PM 32.0 °F 22.5 °F 21.9 °F 66% 30.04 in 10.0 mi NNW 12.7 mph - N/A   Mostly Cloudy
3:52 PM 30.9 °F 20.2 °F 21.9 °F 69% 30.07 in 10.0 mi NW 15.0 mph 24.2 mph N/A   Scattered Clouds
4:52 PM 33.1 °F 21.9 °F 24.1 °F 70% 30.08 in 10.0 mi NW 18.4 mph 24.2 mph N/A   Mostly Cloudy
5:52 PM 30.9 °F 23.5 °F 23.0 °F 72% 30.10 in 10.0 mi NW 8.1 mph - N/A   Clear
6:52 PM 28.9 °F 18.6 °F 21.9 °F 75% 30.10 in 10.0 mi NW 12.7 mph - N/A   Clear
7:52 PM 27.0 °F 21.6 °F 19.9 °F 75% 30.12 in 10.0 mi West 4.6 mph - N/A   Clear
8:52 PM 23.0 °F 14.7 °F 18.0 °F 81% 30.13 in 10.0 mi WNW 6.9 mph - N/A   Clear
9:52 PM 23.0 °F 13.9 °F 17.1 °F 78% 30.14 in 10.0 mi WNW 8.1 mph - N/A   Clear
10:52 PM 21.9 °F 17.2 °F 16.0 °F 78% 30.14 in 10.0 mi West 3.5 mph - N/A   Clear
11:52 PM 19.0 °F 13.9 °F 14.0 °F 81% 30.13 in 10.0 mi WNW 3.5 mph - N/A   Clear